Time,TemperatureF,DewpointF,PressureIn,WindDirection,WindDirectionDegrees,WindSpeedMPH,WindSpeedGustMPH,Humidity,HourlyPrecipIn,Conditions,Clouds,dailyrainin,SolarRadiationWatts/m^2,SoftwareType,DateUTC
2013-07-28 00:06:00,56.2,51.7,23.36,NNW,346,0.0,1.0,85,0.00,,,0.00,1107,Wunderground v.1.15,2013-07-28 05:06:00,
2013-07-28 00:11:00,56.9,51.8,23.36,NNW,346,1.0,1.0,83,0.00,,,0.00,1130,Wunderground v.1.15,2013-07-28 05:11:00,
2013-07-28 00:18:00,57.3,51.5,23.37,NNW,346,0.0,1.0,81,0.00,,,0.00,1144,Wunderground v.1.15,2013-07-28 05:18:00,
2013-07-28 00:23:00,57.7,51.2,23.38,NNW,346,1.0,1.0,79,0.00,,,0.00,1153,Wunderground v.1.15,2013-07-28 05:23:00,
2013-07-28 00:29:00,57.8,51.3,23.37,NNW,346,1.0,1.0,79,0.00,,,0.00,1162,Wunderground v.1.15,2013-07-28 05:29:00,
2013-07-28 00:36:00,57.8,51.3,23.39,NNW,346,0.0,1.0,79,0.00,,,0.00,1157,Wunderground v.1.15,2013-07-28 05:36:00,
2013-07-28 00:41:00,57.8,51.3,23.39,NNW,346,0.0,0.0,79,0.00,,,0.00,1158,Wunderground v.1.15,2013-07-28 05:41:00,
2013-07-28 00:48:00,57.7,51.2,23.41,NNW,346,0.0,0.0,79,0.00,,,0.00,1148,Wunderground v.1.15,2013-07-28 05:48:00,
2013-07-28 00:53:00,57.5,51.0,23.41,NNW,346,0.0,0.0,79,0.00,,,0.00,1139,Wunderground v.1.15,2013-07-28 05:53:00,
2013-07-28 00:59:00,57.2,51.1,23.40,NNW,346,0.0,0.0,80,0.00,,,0.00,1127,Wunderground v.1.15,2013-07-28 05:59:00,
2013-07-28 01:06:00,57.0,51.2,23.41,NNW,346,0.0,2.0,81,0.00,,,0.00,1123,Wunderground v.1.15,2013-07-28 06:06:00,
2013-07-28 01:11:00,56.7,50.9,23.42,NNW,346,0.0,0.0,81,0.00,,,0.00,1123,Wunderground v.1.15,2013-07-28 06:11:00,
2013-07-28 01:18:00,56.4,50.6,23.41,NNW,346,0.0,0.0,81,0.00,,,0.00,1116,Wunderground v.1.15,2013-07-28 06:18:00,
2013-07-28 01:23:00,56.4,50.6,23.35,NNW,346,0.0,0.0,81,0.00,,,0.00,1116,Wunderground v.1.15,2013-07-28 06:23:00,
2013-07-28 01:29:00,-999.9,-99.9,23.34,North,32767,-999.0,0.0,255,-99.99,,,0.00,,Wunderground v.1.15,2013-07-28 06:29:00,
2013-07-28 01:36:00,-999.9,-99.9,23.41,North,32767,-999.0,0.0,255,-99.99,,,0.00,,Wunderground v.1.15,2013-07-28 06:36:00,
2013-07-28 01:41:00,-999.9,-99.9,23.43,North,32767,-999.0,0.0,255,-99.99,,,0.00,,Wunderground v.1.15,2013-07-28 06:41:00,
2013-07-28 01:48:00,-999.9,-99.9,23.43,North,32767,-999.0,0.0,255,-99.99,,,0.00,,Wunderground v.1.15,2013-07-28 06:48:00,
2013-07-28 01:53:00,-999.9,-99.9,23.43,North,32767,-999.0,0.0,255,-99.99,,,0.00,,Wunderground v.1.15,2013-07-28 06:53:00,
2013-07-28 01:59:00,-999.9,-99.9,23.43,North,32767,-999.0,0.0,255,-99.99,,,0.00,,Wunderground v.1.15,2013-07-28 06:59:00,
2013-07-28 02:06:00,-999.9,-99.9,23.46,North,32767,-999.0,2.0,255,-99.99,,,0.00,,Wunderground v.1.15,2013-07-28 07:06:00,
2013-07-28 02:11:00,-999.9,-99.9,23.48,North,32767,-999.0,0.0,255,-99.99,,,0.00,,Wunderground v.1.15,2013-07-28 07:11:00,
2013-07-28 02:18:00,-999.9,-99.9,23.47,North,32767,-999.0,0.0,255,-99.99,,,0.00,,Wunderground v.1.15,2013-07-28 07:18:00,
2013-07-28 02:23:00,-999.9,-99.9,23.48,North,32767,-999.0,0.0,255,-99.99,,,0.00,,Wunderground v.1.15,2013-07-28 07:23:00,
2013-07-28 02:29:00,-999.9,-99.9,23.49,North,32767,-999.0,0.0,255,-99.99,,,0.00,,Wunderground v.1.15,2013-07-28 07:29:00,
2013-07-28 02:36:00,-999.9,-99.9,23.50,North,32767,-999.0,0.0,255,-99.99,,,0.00,,Wunderground v.1.15,2013-07-28 07:36:00,
2013-07-28 02:41:00,-999.9,-99.9,23.50,North,32767,-999.0,0.0,255,-99.99,,,0.00,,Wunderground v.1.15,2013-07-28 07:41:00,
2013-07-28 02:48:00,-999.9,-99.9,23.41,North,32767,-999.0,0.0,255,-99.99,,,0.00,,Wunderground v.1.15,2013-07-28 07:48:00,
2013-07-28 02:53:00,-999.9,-99.9,23.48,North,32767,-999.0,0.0,255,-99.99,,,0.00,,Wunderground v.1.15,2013-07-28 07:53:00,
2013-07-28 02:59:00,-999.9,-99.9,23.50,North,32767,-999.0,0.0,255,-99.99,,,0.00,,Wunderground v.1.15,2013-07-28 07:59:00,
2013-07-28 03:06:00,-999.9,-99.9,23.51,North,32767,-999.0,0.0,255,-99.99,,,0.00,,Wunderground v.1.15,2013-07-28 08:06:00,
2013-07-28 03:11:00,54.8,49.4,23.51,NNW,346,0.0,1.0,82,0.00,,,0.00,1375,Wunderground v.1.15,2013-07-28 08:11:00,
2013-07-28 03:18:00,54.6,49.2,23.42,NNW,346,0.0,2.0,82,0.00,,,0.00,1315,Wunderground v.1.15,2013-07-28 08:18:00,
2013-07-28 03:23:00,54.5,49.4,23.50,NNW,346,1.0,1.0,83,0.00,,,0.00,1290,Wunderground v.1.15,2013-07-28 08:23:00,
2013-07-28 03:29:00,54.3,49.2,23.51,NNW,346,0.0,0.0,83,0.00,,,0.00,1276,Wunderground v.1.15,2013-07-28 08:29:00,
2013-07-28 03:36:00,54.0,49.3,23.51,NNW,346,0.0,0.0,84,0.00,,,0.00,1236,Wunderground v.1.15,2013-07-28 08:36:00,
2013-07-28 03:41:00,53.9,49.2,23.51,NNW,346,0.0,0.0,84,0.00,,,0.00,1223,Wunderground v.1.15,2013-07-28 08:41:00,
2013-07-28 03:48:00,53.8,49.1,23.51,NNW,346,0.0,0.0,84,0.00,,,0.00,1204,Wunderground v.1.15,2013-07-28 08:48:00,
2013-07-28 03:53:00,53.7,49.0,23.51,NNW,346,0.0,0.0,84,0.00,,,0.00,1194,Wunderground v.1.15,2013-07-28 08:53:00,
2013-07-28 03:59:00,53.6,48.9,23.50,NNW,346,0.0,0.0,84,0.00,,,0.00,1183,Wunderground v.1.15,2013-07-28 08:59:00,
2013-07-28 04:06:00,53.4,49.0,23.52,NNW,346,0.0,1.0,85,0.00,,,0.00,1165,Wunderground v.1.15,2013-07-28 09:06:00,
2013-07-28 04:11:00,53.2,48.5,23.54,NNW,346,0.0,0.0,84,0.00,,,0.00,1150,Wunderground v.1.15,2013-07-28 09:11:00,
2013-07-28 04:18:00,52.8,48.4,23.55,NNW,346,0.0,0.0,85,0.00,,,0.00,1118,Wunderground v.1.15,2013-07-28 09:18:00,
2013-07-28 04:23:00,52.5,48.4,23.56,NNW,346,0.0,0.0,86,0.00,,,0.00,1107,Wunderground v.1.15,2013-07-28 09:23:00,
2013-07-28 04:29:00,52.0,47.9,23.56,NNW,346,0.0,0.0,86,0.00,,,0.00,1099,Wunderground v.1.15,2013-07-28 09:29:00,
2013-07-28 04:36:00,51.6,47.9,23.57,NNW,346,0.0,0.0,87,0.00,,,0.00,1090,Wunderground v.1.15,2013-07-28 09:36:00,
2013-07-28 04:41:00,51.3,48.2,23.57,NNW,346,0.0,0.0,89,0.00,,,0.00,1085,Wunderground v.1.15,2013-07-28 09:41:00,
2013-07-28 04:48:00,51.2,48.1,23.57,NNW,346,0.0,0.0,89,0.00,,,0.00,1088,Wunderground v.1.15,2013-07-28 09:48:00,
2013-07-28 04:53:00,51.0,48.2,23.57,NNW,346,0.0,0.0,90,0.00,,,0.00,1078,Wunderground v.1.15,2013-07-28 09:53:00,
2013-07-28 04:59:00,51.0,48.2,23.57,NNW,346,0.0,0.0,90,0.00,,,0.00,1074,Wunderground v.1.15,2013-07-28 09:59:00,
2013-07-28 05:06:00,50.9,48.1,23.57,NNW,346,0.0,2.0,90,0.00,,,0.00,1074,Wunderground v.1.15,2013-07-28 10:06:00,
2013-07-28 05:11:00,50.8,48.0,23.57,NNW,346,0.0,0.0,90,0.00,,,0.00,1065,Wunderground v.1.15,2013-07-28 10:11:00,
2013-07-28 05:18:00,50.6,47.8,23.57,NNW,346,0.0,0.0,90,0.00,,,0.00,1055,Wunderground v.1.15,2013-07-28 10:18:00,
2013-07-28 05:23:00,50.5,47.7,23.58,NNW,346,0.0,0.0,90,0.00,,,0.00,1056,Wunderground v.1.15,2013-07-28 10:23:00,
2013-07-28 05:29:00,50.2,47.4,23.56,NNW,346,0.0,0.0,90,0.00,,,0.00,1049,Wunderground v.1.15,2013-07-28 10:29:00,
2013-07-28 05:36:00,50.1,47.6,23.57,NNW,346,0.0,0.0,91,0.00,,,0.00,1028,Wunderground v.1.15,2013-07-28 10:36:00,
2013-07-28 05:41:00,50.0,47.5,23.59,NNW,346,0.0,0.0,91,0.00,,,0.00,1013,Wunderground v.1.15,2013-07-28 10:41:00,
2013-07-28 05:48:00,49.9,47.4,23.59,NNW,346,0.0,0.0,91,0.00,,,0.00,977,Wunderground v.1.15,2013-07-28 10:48:00,
2013-07-28 05:53:00,49.7,47.2,23.61,NNW,346,0.0,0.0,91,0.00,,,0.00,951,Wunderground v.1.15,2013-07-28 10:53:00,
2013-07-28 05:59:00,49.5,47.0,23.59,NNW,346,0.0,0.0,91,0.00,,,0.00,1338,Wunderground v.1.15,2013-07-28 10:59:00,
2013-07-28 06:06:00,49.5,47.3,23.62,NNW,346,0.0,0.0,92,0.00,,,0.00,884,Wunderground v.1.15,2013-07-28 11:06:00,
2013-07-28 06:11:00,49.4,46.9,23.62,NNW,346,0.0,0.0,91,0.00,,,0.00,861,Wunderground v.1.15,2013-07-28 11:11:00,
2013-07-28 06:18:00,49.3,47.1,23.63,NNW,346,0.0,0.0,92,0.00,,,0.00,831,Wunderground v.1.15,2013-07-28 11:18:00,
2013-07-28 06:23:00,49.5,47.3,23.63,NNW,346,0.0,0.0,92,0.00,,,0.00,842,Wunderground v.1.15,2013-07-28 11:23:00,
2013-07-28 06:29:00,49.6,47.7,23.63,NNW,346,0.0,0.0,93,0.00,,,0.00,826,Wunderground v.1.15,2013-07-28 11:29:00,
2013-07-28 06:36:00,49.8,47.9,23.64,NNW,346,0.0,0.0,93,0.00,,,0.00,831,Wunderground v.1.15,2013-07-28 11:36:00,
2013-07-28 06:41:00,50.1,48.2,23.66,NNW,346,0.0,0.0,93,0.00,,,0.00,835,Wunderground v.1.15,2013-07-28 11:41:00,
2013-07-28 06:48:00,50.4,48.5,23.67,NNW,346,0.0,0.0,93,0.00,,,0.00,838,Wunderground v.1.15,2013-07-28 11:48:00,
2013-07-28 06:53:00,50.6,48.7,23.67,NNW,346,0.0,0.0,93,0.00,,,0.00,861,Wunderground v.1.15,2013-07-28 11:53:00,
2013-07-28 06:59:00,51.1,48.9,23.67,NNW,346,0.0,0.0,92,0.00,,,0.00,863,Wunderground v.1.15,2013-07-28 11:59:00,
2013-07-28 07:06:00,51.4,49.2,23.68,NNW,346,0.0,0.0,92,0.00,,,0.00,847,Wunderground v.1.15,2013-07-28 12:06:00,
2013-07-28 07:11:00,51.7,49.2,23.69,NNW,346,0.0,0.0,91,0.00,,,0.00,846,Wunderground v.1.15,2013-07-28 12:11:00,
2013-07-28 07:18:00,52.1,49.3,23.69,NNW,346,0.0,0.0,90,0.00,,,0.00,837,Wunderground v.1.15,2013-07-28 12:18:00,
2013-07-28 07:23:00,52.4,49.6,23.69,NNW,346,0.0,0.0,90,0.00,,,0.00,831,Wunderground v.1.15,2013-07-28 12:23:00,
2013-07-28 07:29:00,53.0,50.1,23.70,NNW,346,0.0,0.0,90,0.00,,,0.00,856,Wunderground v.1.15,2013-07-28 12:29:00,
2013-07-28 07:36:00,54.2,51.0,23.70,NNW,346,0.0,0.0,89,0.00,,,0.00,935,Wunderground v.1.15,2013-07-28 12:36:00,
2013-07-28 07:43:00,55.4,51.0,23.70,NNW,346,0.0,0.0,85,0.00,,,0.00,1000,Wunderground v.1.15,2013-07-28 12:43:00,
2013-07-28 07:49:00,56.4,51.6,23.71,NNW,346,0.0,1.0,84,0.00,,,0.00,1056,Wunderground v.1.15,2013-07-28 12:49:00,
2013-07-28 07:56:00,57.1,52.0,23.71,NNW,346,1.0,1.0,83,0.00,,,0.00,1086,Wunderground v.1.15,2013-07-28 12:56:00,
2013-07-28 08:01:00,57.6,51.8,23.71,North,355,1.0,2.0,81,0.00,,,0.00,1090,Wunderground v.1.15,2013-07-28 13:01:00,
2013-07-28 08:08:00,58.2,52.1,23.71,NE,50,2.0,2.0,80,0.00,,,0.00,1100,Wunderground v.1.15,2013-07-28 13:08:00,
2013-07-28 08:13:00,58.7,52.9,23.72,NE,51,2.0,2.0,81,0.00,,,0.00,1107,Wunderground v.1.15,2013-07-28 13:13:00,
2013-07-28 08:19:00,59.1,52.6,23.72,East,86,2.0,2.0,79,0.00,,,0.00,1144,Wunderground v.1.15,2013-07-28 13:19:00,
2013-07-28 08:26:00,59.6,53.1,23.72,SE,128,2.0,3.0,79,0.00,,,0.00,1151,Wunderground v.1.15,2013-07-28 13:26:00,
2013-07-28 08:31:00,60.0,53.1,23.72,SE,128,2.0,3.0,78,0.00,,,0.00,1151,Wunderground v.1.15,2013-07-28 13:31:00,
2013-07-28 08:38:00,60.5,52.9,23.72,ESE,117,3.0,5.0,76,0.00,,,0.00,1165,Wunderground v.1.15,2013-07-28 13:38:00,
2013-07-28 08:43:00,60.9,53.3,23.72,ESE,115,3.0,3.0,76,0.00,,,0.00,1162,Wunderground v.1.15,2013-07-28 13:43:00,
2013-07-28 08:49:00,61.2,53.2,23.72,SE,126,3.0,4.0,75,0.00,,,0.00,1165,Wunderground v.1.15,2013-07-28 13:49:00,
2013-07-28 08:56:00,61.6,53.2,23.73,SE,129,4.0,5.0,74,0.00,,,0.00,1155,Wunderground v.1.15,2013-07-28 13:56:00,
2013-07-28 09:01:00,62.0,53.2,23.73,SSE,152,3.0,4.0,73,0.00,,,0.00,1158,Wunderground v.1.15,2013-07-28 14:01:00,
2013-07-28 09:08:00,62.6,54.2,23.73,ESE,123,3.0,4.0,74,0.00,,,0.00,1179,Wunderground v.1.15,2013-07-28 14:08:00,
2013-07-28 09:13:00,63.0,53.4,23.73,East,96,3.0,5.0,71,0.00,,,0.00,1188,Wunderground v.1.15,2013-07-28 14:13:00,
2013-07-28 09:19:00,63.6,53.6,23.72,ESE,106,3.0,5.0,70,0.00,,,0.00,1199,Wunderground v.1.15,2013-07-28 14:19:00,
2013-07-28 09:26:00,64.1,53.3,23.72,ESE,107,3.0,5.0,68,0.00,,,0.00,1213,Wunderground v.1.15,2013-07-28 14:26:00,
2013-07-28 09:31:00,64.4,52.8,23.72,ESE,118,3.0,3.0,66,0.00,,,0.00,1213,Wunderground v.1.15,2013-07-28 14:31:00,
2013-07-28 09:38:00,65.2,54.0,23.72,ESE,122,3.0,4.0,67,0.00,,,0.00,1232,Wunderground v.1.15,2013-07-28 14:38:00,
2013-07-28 09:43:00,65.7,53.6,23.71,SE,128,3.0,4.0,65,0.00,,,0.00,1238,Wunderground v.1.15,2013-07-28 14:43:00,
2013-07-28 09:49:00,65.8,51.5,23.71,East,98,4.0,5.0,60,0.00,,,0.00,1241,Wunderground v.1.15,2013-07-28 14:49:00,
2013-07-28 09:56:00,65.9,52.9,23.71,SE,129,4.0,5.0,63,0.00,,,0.00,1201,Wunderground v.1.15,2013-07-28 14:56:00,
2013-07-28 10:01:00,66.3,52.0,23.71,ESE,107,4.0,6.0,60,0.00,,,0.00,1229,Wunderground v.1.15,2013-07-28 15:01:00,
2013-07-28 10:08:00,66.7,52.8,23.70,East,90,4.0,6.0,61,0.00,,,0.00,1222,Wunderground v.1.15,2013-07-28 15:08:00,
2013-07-28 10:13:00,67.0,50.8,23.70,ESE,118,4.0,7.0,56,0.00,,,0.00,1204,Wunderground v.1.15,2013-07-28 15:13:00,
2013-07-28 10:19:00,67.0,50.8,23.70,ESE,107,5.0,6.0,56,0.00,,,0.00,1185,Wunderground v.1.15,2013-07-28 15:19:00,
2013-07-28 10:26:00,67.3,51.5,23.69,ESE,111,4.0,6.0,57,0.00,,,0.00,1215,Wunderground v.1.15,2013-07-28 15:26:00,
2013-07-28 10:33:00,67.7,51.4,23.69,ESE,114,4.0,4.0,56,0.00,,,0.00,1206,Wunderground v.1.15,2013-07-28 15:33:00,
2013-07-28 10:39:00,68.1,50.8,23.69,ESE,109,4.0,4.0,54,0.00,,,0.00,1262,Wunderground v.1.15,2013-07-28 15:39:00,
2013-07-28 10:46:00,68.4,50.6,23.68,SE,129,4.0,4.0,53,0.00,,,0.00,1271,Wunderground v.1.15,2013-07-28 15:46:00,
2013-07-28 10:51:00,68.5,50.7,23.68,East,84,3.0,4.0,53,0.00,,,0.00,1299,Wunderground v.1.15,2013-07-28 15:51:00,
2013-07-28 10:58:00,68.7,51.4,23.68,ESE,106,3.0,4.0,54,0.00,,,0.00,1317,Wunderground v.1.15,2013-07-28 15:58:00,
2013-07-28 11:03:00,69.0,51.7,23.67,ESE,109,4.0,10.0,54,0.00,,,0.00,1325,Wunderground v.1.15,2013-07-28 16:03:00,
2013-07-28 11:09:00,69.5,51.1,23.67,East,92,3.0,3.0,52,0.00,,,0.00,1338,Wunderground v.1.15,2013-07-28 16:09:00,
2013-07-28 11:16:00,69.2,52.3,23.66,East,83,4.0,6.0,55,0.00,,,0.00,1315,Wunderground v.1.15,2013-07-28 16:16:00,
2013-07-28 11:21:00,69.2,51.3,23.66,NE,45,3.0,5.0,53,0.00,,,0.00,1278,Wunderground v.1.15,2013-07-28 16:21:00,
2013-07-28 11:28:00,69.6,52.7,23.65,ESE,113,3.0,5.0,55,0.00,,,0.00,1304,Wunderground v.1.15,2013-07-28 16:28:00,
2013-07-28 11:33:00,70.1,51.7,23.65,ESE,102,3.0,3.0,52,0.00,,,0.00,1338,Wunderground v.1.15,2013-07-28 16:33:00,
2013-07-28 11:39:00,70.0,51.6,23.64,ESE,106,3.0,3.0,52,0.00,,,0.00,1362,Wunderground v.1.15,2013-07-28 16:39:00,
2013-07-28 11:46:00,70.2,51.7,23.64,South,169,3.0,4.0,52,0.00,,,0.00,1354,Wunderground v.1.15,2013-07-28 16:46:00,
2013-07-28 11:51:00,70.4,52.4,23.63,ESE,114,2.0,3.0,53,0.00,,,0.00,1331,Wunderground v.1.15,2013-07-28 16:51:00,
2013-07-28 11:58:00,71.1,54.1,23.62,ENE,76,4.0,6.0,55,0.00,,,0.00,1355,Wunderground v.1.15,2013-07-28 16:58:00,
2013-07-28 12:03:00,70.9,51.9,23.62,East,95,4.0,10.0,51,0.00,,,0.00,1368,Wunderground v.1.15,2013-07-28 17:03:00,
2013-07-28 12:09:00,71.0,51.4,23.61,NE,40,4.0,6.0,50,0.00,,,0.00,1368,Wunderground v.1.15,2013-07-28 17:09:00,
2013-07-28 12:16:00,70.5,52.0,23.60,SE,146,4.0,6.0,52,0.00,,,0.00,1343,Wunderground v.1.15,2013-07-28 17:16:00,
2013-07-28 12:21:00,70.8,52.8,23.59,SE,145,2.0,3.0,53,0.00,,,0.00,1366,Wunderground v.1.15,2013-07-28 17:21:00,
2013-07-28 12:28:00,71.0,52.0,23.59,NE,53,2.0,5.0,51,0.00,,,0.00,1385,Wunderground v.1.15,2013-07-28 17:28:00,
2013-07-28 12:33:00,70.9,51.9,23.58,ENE,71,2.0,3.0,51,0.00,,,0.00,1392,Wunderground v.1.15,2013-07-28 17:33:00,
2013-07-28 12:39:00,71.4,52.3,23.58,SE,145,2.0,2.0,51,0.00,,,0.00,1419,Wunderground v.1.15,2013-07-28 17:39:00,
2013-07-28 12:46:00,71.2,51.6,23.57,East,96,2.0,2.0,50,0.00,,,0.00,1427,Wunderground v.1.15,2013-07-28 17:46:00,
2013-07-28 12:53:00,71.2,52.7,23.56,ENE,67,2.0,4.0,52,0.00,,,0.00,1429,Wunderground v.1.15,2013-07-28 17:53:00,
2013-07-28 12:59:00,71.4,53.4,23.56,ESE,105,3.0,4.0,53,0.00,,,0.00,1424,Wunderground v.1.15,2013-07-28 17:59:00,
2013-07-28 13:06:00,71.5,52.9,23.55,SE,126,3.0,11.0,52,0.00,,,0.00,1429,Wunderground v.1.15,2013-07-28 18:06:00,
2013-07-28 13:11:00,71.8,52.2,23.54,ESE,107,4.0,11.0,50,0.00,,,0.00,1424,Wunderground v.1.15,2013-07-28 18:11:00,
2013-07-28 13:18:00,71.7,51.0,23.53,East,95,4.0,11.0,48,0.00,,,0.00,1413,Wunderground v.1.15,2013-07-28 18:18:00,
2013-07-28 13:23:00,72.0,52.3,23.52,East,92,2.0,5.0,50,0.00,,,0.00,1424,Wunderground v.1.15,2013-07-28 18:23:00,
2013-07-28 13:29:00,72.0,51.2,23.52,ENE,63,2.0,2.0,48,0.00,,,0.00,1438,Wunderground v.1.15,2013-07-28 18:29:00,
2013-07-28 13:36:00,72.0,51.8,23.51,East,87,3.0,6.0,49,0.00,,,0.00,1447,Wunderground v.1.15,2013-07-28 18:36:00,
2013-07-28 13:41:00,72.3,51.5,23.50,East,88,3.0,5.0,48,0.00,,,0.00,1440,Wunderground v.1.15,2013-07-28 18:41:00,
2013-07-28 13:48:00,72.7,51.9,23.49,NE,42,3.0,5.0,48,0.00,,,0.00,1459,Wunderground v.1.15,2013-07-28 18:48:00,
2013-07-28 13:53:00,72.2,51.4,23.49,NE,51,3.0,4.0,48,0.00,,,0.00,1434,Wunderground v.1.15,2013-07-28 18:53:00,
2013-07-28 13:59:00,72.3,52.6,23.48,ESE,118,3.0,3.0,50,0.00,,,0.00,1426,Wunderground v.1.15,2013-07-28 18:59:00,
2013-07-28 14:06:00,72.6,51.8,23.47,NE,53,2.0,7.0,48,0.00,,,0.00,1454,Wunderground v.1.15,2013-07-28 19:06:00,
2013-07-28 14:11:00,72.3,53.2,21.87,ENE,75,2.0,4.0,51,0.00,,,0.00,1436,Wunderground v.1.15,2013-07-28 19:11:00,
2013-07-28 14:18:00,72.4,52.2,23.45,ENE,76,3.0,4.0,49,0.00,,,0.00,1410,Wunderground v.1.15,2013-07-28 19:18:00,
2013-07-28 14:23:00,72.4,51.6,23.44,NE,44,4.0,5.0,48,0.00,,,0.00,1394,Wunderground v.1.15,2013-07-28 19:23:00,
2013-07-28 14:29:00,72.6,52.3,23.44,ENE,71,4.0,4.0,49,0.00,,,0.00,1397,Wunderground v.1.15,2013-07-28 19:29:00,
2013-07-28 14:36:00,72.8,53.1,23.42,ENE,75,3.0,4.0,50,0.00,,,0.00,1424,Wunderground v.1.15,2013-07-28 19:36:00,
2013-07-28 14:41:00,73.1,52.8,23.42,SE,138,4.0,4.0,49,0.00,,,0.00,1429,Wunderground v.1.15,2013-07-28 19:41:00,
2013-07-28 14:48:00,73.4,53.6,23.42,ESE,118,3.0,4.0,50,0.00,,,0.00,1455,Wunderground v.1.15,2013-07-28 19:48:00,
2013-07-28 14:53:00,73.8,53.4,23.41,ENE,78,3.0,5.0,49,0.00,,,0.00,1492,Wunderground v.1.15,2013-07-28 19:53:00,
2013-07-28 14:59:00,73.9,52.4,22.86,East,92,3.0,5.0,47,0.00,,,0.00,1496,Wunderground v.1.15,2013-07-28 19:59:00,
2013-07-28 15:06:00,74.1,52.6,23.21,SE,126,4.0,9.0,47,0.00,,,0.00,1484,Wunderground v.1.15,2013-07-28 20:06:00,
2013-07-28 15:11:00,74.1,54.3,23.21,NE,51,2.0,5.0,50,0.00,,,0.00,1499,Wunderground v.1.15,2013-07-28 20:11:00,
2013-07-28 15:18:00,74.3,53.3,23.21,ESE,118,3.0,5.0,48,0.00,,,0.00,,Wunderground v.1.15,2013-07-28 20:18:00,
2013-07-28 15:23:00,74.6,53.6,22.66,East,100,3.0,4.0,48,0.00,,,0.00,,Wunderground v.1.15,2013-07-28 20:23:00,
2013-07-28 15:29:00,74.6,54.2,23.18,SE,126,4.0,5.0,49,0.00,,,0.00,1496,Wunderground v.1.15,2013-07-28 20:29:00,
2013-07-28 15:36:00,74.8,53.2,23.26,SSE,159,4.0,5.0,47,0.00,,,0.00,1489,Wunderground v.1.15,2013-07-28 20:36:00,
2013-07-28 15:41:00,75.2,55.3,23.34,ENE,71,4.0,4.0,50,0.00,,,0.00,,Wunderground v.1.15,2013-07-28 20:41:00,
2013-07-28 15:48:00,74.7,52.5,23.34,ENE,71,5.0,7.0,46,0.00,,,0.00,1484,Wunderground v.1.15,2013-07-28 20:48:00,
2013-07-28 15:53:00,74.2,52.1,25.35,ESE,111,5.0,5.0,46,0.00,,,0.00,1464,Wunderground v.1.15,2013-07-28 20:53:00,
2013-07-28 15:59:00,74.0,53.6,23.31,ESE,107,5.0,6.0,49,0.00,,,0.00,1443,Wunderground v.1.15,2013-07-28 20:59:00,
2013-07-28 16:06:00,74.2,53.2,23.30,SE,129,6.0,8.0,48,0.00,,,0.00,1408,Wunderground v.1.15,2013-07-28 21:06:00,
2013-07-28 16:11:00,74.2,53.8,23.30,ESE,117,6.0,9.0,49,0.00,,,0.00,1415,Wunderground v.1.15,2013-07-28 21:11:00,
2013-07-28 16:18:00,74.0,53.6,23.68,ESE,123,6.0,9.0,49,0.00,,,0.00,1396,Wunderground v.1.15,2013-07-28 21:18:00,
2013-07-28 16:23:00,73.6,53.3,23.29,ENE,57,4.0,6.0,49,0.00,,,0.00,1375,Wunderground v.1.15,2013-07-28 21:23:00,
2013-07-28 16:29:00,73.5,54.8,23.29,ESE,120,3.0,5.0,52,0.00,,,0.00,1368,Wunderground v.1.15,2013-07-28 21:29:00,
2013-07-28 16:36:00,73.9,54.6,23.89,SE,132,4.0,5.0,51,0.00,,,0.00,1385,Wunderground v.1.15,2013-07-28 21:36:00,
2013-07-28 16:41:00,74.1,54.3,23.89,SE,132,5.0,5.0,50,0.00,,,0.00,1403,Wunderground v.1.15,2013-07-28 21:41:00,
2013-07-28 16:48:00,74.4,54.0,23.89,ENE,76,4.0,5.0,49,0.00,,,0.00,1419,Wunderground v.1.15,2013-07-28 21:48:00,
2013-07-28 16:53:00,74.5,53.5,23.89,East,98,4.0,5.0,48,0.00,,,0.00,1434,Wunderground v.1.15,2013-07-28 21:53:00,
2013-07-28 16:59:00,74.3,55.0,24.13,SE,146,4.0,4.0,51,0.00,,,0.00,1426,Wunderground v.1.15,2013-07-28 21:59:00,
2013-07-28 17:06:00,74.7,54.8,31.78,East,88,4.0,11.0,50,0.00,,,0.00,1457,Wunderground v.1.15,2013-07-28 22:06:00,
2013-07-28 17:11:00,74.9,55.6,31.78,ESE,122,5.0,5.0,51,0.00,,,0.00,1461,Wunderground v.1.15,2013-07-28 22:11:00,
2013-07-28 17:18:00,75.0,54.0,31.78,ESE,111,5.0,5.0,48,0.00,,,0.00,1463,Wunderground v.1.15,2013-07-28 22:18:00,
2013-07-28 17:23:00,74.7,55.9,31.75,SE,142,4.0,5.0,52,0.00,,,0.00,1448,Wunderground v.1.15,2013-07-28 22:23:00,
2013-07-28 17:29:00,74.4,54.5,31.75,East,100,4.0,4.0,50,0.00,,,0.00,1433,Wunderground v.1.15,2013-07-28 22:29:00,
2013-07-28 17:38:00,74.8,55.5,31.75,East,93,5.0,7.0,51,0.00,,,0.00,1441,Wunderground v.1.15,2013-07-28 22:38:00,
2013-07-28 17:43:00,74.4,54.5,31.75,ESE,105,4.0,6.0,50,0.00,,,0.00,1427,Wunderground v.1.15,2013-07-28 22:43:00,
2013-07-28 17:49:00,73.8,53.4,31.75,ESE,113,4.0,5.0,49,0.00,,,0.00,1373,Wunderground v.1.15,2013-07-28 22:49:00,
2013-07-28 17:56:00,73.7,53.9,23.32,ESE,113,4.0,5.0,50,0.00,,,0.00,1343,Wunderground v.1.15,2013-07-28 22:56:00,
2013-07-28 18:01:00,73.5,54.3,23.43,East,98,4.0,10.0,51,0.00,,,0.00,1325,Wunderground v.1.15,2013-07-28 23:01:00,
2013-07-28 18:08:00,73.5,54.8,23.43,East,92,4.0,10.0,52,0.00,,,0.00,1310,Wunderground v.1.15,2013-07-28 23:08:00,
2013-07-28 18:13:00,73.4,55.2,23.43,East,83,4.0,6.0,53,0.00,,,0.00,1301,Wunderground v.1.15,2013-07-28 23:13:00,
2013-07-28 18:19:00,73.3,55.1,23.43,East,90,4.0,4.0,53,0.00,,,0.00,1274,Wunderground v.1.15,2013-07-28 23:19:00,
2013-07-28 18:26:00,73.3,55.6,23.43,East,83,4.0,4.0,54,0.00,,,0.00,1269,Wunderground v.1.15,2013-07-28 23:26:00,
2013-07-28 18:31:00,73.2,55.6,23.43,East,84,3.0,4.0,54,0.00,,,0.00,1269,Wunderground v.1.15,2013-07-28 23:31:00,
2013-07-28 18:38:00,73.1,55.5,23.43,East,101,3.0,4.0,54,0.00,,,0.00,1264,Wunderground v.1.15,2013-07-28 23:38:00,
2013-07-28 18:43:00,73.2,58.0,23.43,SSW,213,3.0,5.0,59,0.00,,,0.00,1269,Wunderground v.1.15,2013-07-28 23:43:00,
2013-07-28 18:49:00,72.7,58.9,23.43,SW,223,4.0,5.0,62,0.00,,,0.00,1229,Wunderground v.1.15,2013-07-28 23:49:00,
2013-07-28 18:56:00,72.4,58.2,23.43,SSW,213,5.0,7.0,61,0.00,,,0.00,1201,Wunderground v.1.15,2013-07-28 23:56:00,
2013-07-28 19:01:00,71.9,58.2,23.43,SW,229,7.0,7.0,62,0.00,,,0.00,1192,Wunderground v.1.15,2013-07-29 00:01:00,
2013-07-28 19:08:00,71.2,58.4,23.43,SW,219,6.0,10.0,64,0.00,,,0.00,1167,Wunderground v.1.15,2013-07-29 00:08:00,
2013-07-28 19:13:00,70.8,58.4,23.43,SW,218,5.0,5.0,65,0.00,,,0.00,1172,Wunderground v.1.15,2013-07-29 00:13:00,
2013-07-28 19:19:00,70.3,58.0,23.43,SW,221,4.0,5.0,65,0.00,,,0.00,1160,Wunderground v.1.15,2013-07-29 00:19:00,
2013-07-28 19:26:00,69.9,58.4,23.43,SW,219,3.0,5.0,67,0.00,,,0.00,1134,Wunderground v.1.15,2013-07-29 00:26:00,
2013-07-28 19:33:00,69.6,58.2,25.16,SW,215,4.0,7.0,67,0.00,,,0.00,1150,Wunderground v.1.15,2013-07-29 00:33:00,
2013-07-28 19:39:00,69.5,58.1,25.16,SW,218,4.0,5.0,67,0.00,,,0.00,1155,Wunderground v.1.15,2013-07-29 00:39:00,
2013-07-28 19:46:00,69.2,58.2,24.82,SW,216,4.0,5.0,68,0.00,,,0.00,1167,Wunderground v.1.15,2013-07-29 00:46:00,
2013-07-28 19:51:00,69.1,58.5,24.82,SSW,211,3.0,3.0,69,0.00,,,0.00,1155,Wunderground v.1.15,2013-07-29 00:51:00,
2013-07-28 19:58:00,69.0,58.4,24.82,SSW,212,2.0,3.0,69,0.00,,,0.00,1160,Wunderground v.1.15,2013-07-29 00:58:00,
2013-07-28 20:03:00,68.9,58.7,24.82,SSW,209,2.0,11.0,70,0.00,,,0.00,1169,Wunderground v.1.15,2013-07-29 01:03:00,
2013-07-28 20:09:00,68.8,58.6,24.82,SSW,205,2.0,2.0,70,0.00,,,0.00,1172,Wunderground v.1.15,2013-07-29 01:09:00,
2013-07-28 20:16:00,68.7,58.1,24.82,SSW,200,2.0,3.0,69,0.00,,,0.00,1183,Wunderground v.1.15,2013-07-29 01:16:00,
2013-07-28 20:23:00,68.6,58.4,24.82,SSW,196,2.0,4.0,70,0.00,,,0.00,1187,Wunderground v.1.15,2013-07-29 01:23:00,
2013-07-28 20:29:00,68.4,58.6,24.82,SSW,196,2.0,2.0,71,0.00,,,0.00,1185,Wunderground v.1.15,2013-07-29 01:29:00,
2013-07-28 20:36:00,68.3,58.1,24.82,SSW,194,2.0,2.0,70,0.00,,,0.00,1194,Wunderground v.1.15,2013-07-29 01:36:00,
2013-07-28 20:43:00,68.2,58.4,24.82,SSW,194,1.0,2.0,71,0.00,,,0.00,1201,Wunderground v.1.15,2013-07-29 01:43:00,
2013-07-28 20:49:00,68.0,58.2,24.82,SSW,194,1.0,2.0,71,0.00,,,0.00,1204,Wunderground v.1.15,2013-07-29 01:49:00,
2013-07-28 20:59:00,67.8,58.4,24.82,SSW,195,2.0,2.0,72,0.00,,,0.00,1218,Wunderground v.1.15,2013-07-29 01:59:00,
2013-07-28 21:08:00,67.7,58.3,23.17,SSW,195,1.0,9.0,72,0.00,,,0.00,1243,Wunderground v.1.15,2013-07-29 02:08:00,
2013-07-28 21:13:00,67.5,58.9,23.08,SSW,195,0.0,9.0,74,0.00,,,0.00,1259,Wunderground v.1.15,2013-07-29 02:13:00,
2013-07-28 21:19:00,67.3,59.1,23.16,SSW,194,1.0,1.0,75,0.00,,,0.00,1276,Wunderground v.1.15,2013-07-29 02:19:00,
2013-07-28 21:28:00,67.1,58.9,23.16,SSW,194,0.0,1.0,75,0.00,,,0.00,1311,Wunderground v.1.15,2013-07-29 02:28:00,
2013-07-28 21:33:00,67.0,59.2,23.16,SSW,194,0.0,1.0,76,0.00,,,0.00,1317,Wunderground v.1.15,2013-07-29 02:33:00,
2013-07-28 21:43:00,66.8,59.0,23.16,SSW,194,1.0,1.0,76,0.00,,,0.00,1336,Wunderground v.1.15,2013-07-29 02:43:00,
2013-07-28 21:49:00,66.8,58.6,23.16,South,190,1.0,1.0,75,0.00,,,0.00,1338,Wunderground v.1.15,2013-07-29 02:49:00,
2013-07-28 21:56:00,66.6,58.8,23.16,South,189,2.0,2.0,76,0.00,,,0.00,1324,Wunderground v.1.15,2013-07-29 02:56:00,
2013-07-28 22:01:00,66.6,58.8,23.16,South,189,1.0,4.0,76,0.00,,,0.00,1341,Wunderground v.1.15,2013-07-29 03:01:00,
2013-07-28 22:08:00,-999.9,-99.9,23.16,North,32767,-999.0,4.0,255,-99.99,,,0.00,,Wunderground v.1.15,2013-07-29 03:08:00,
2013-07-28 22:13:00,-999.9,-99.9,23.16,North,32767,-999.0,0.0,255,-99.99,,,0.00,,Wunderground v.1.15,2013-07-29 03:13:00,
2013-07-28 22:19:00,-999.9,-99.9,23.16,North,32767,-999.0,0.0,255,-99.99,,,0.00,,Wunderground v.1.15,2013-07-29 03:19:00,
2013-07-28 22:26:00,-999.9,-99.9,23.16,North,32767,-999.0,0.0,255,-99.99,,,0.00,,Wunderground v.1.15,2013-07-29 03:26:00,
2013-07-28 22:33:00,-999.9,-99.9,23.16,North,32767,-999.0,0.0,255,-99.99,,,0.00,,Wunderground v.1.15,2013-07-29 03:33:00,
2013-07-28 22:41:00,-999.9,-99.9,23.16,North,32767,-999.0,0.0,255,-99.99,,,0.00,,Wunderground v.1.15,2013-07-29 03:41:00,
2013-07-28 22:48:00,-999.9,-99.9,22.85,North,32767,-999.0,0.0,255,-99.99,,,0.00,,Wunderground v.1.15,2013-07-29 03:48:00,
2013-07-28 22:56:00,-999.9,-99.9,22.85,North,32767,-999.0,0.0,255,-99.99,,,0.00,,Wunderground v.1.15,2013-07-29 03:56:00,
2013-07-28 23:01:00,-999.9,-99.9,22.85,North,32767,-999.0,4.0,255,-99.99,,,0.00,,Wunderground v.1.15,2013-07-29 04:01:00,
2013-07-28 23:03:00,-999.9,-99.9,22.85,North,32767,-999.0,4.0,255,-99.99,,,0.00,,Wunderground v.1.15,2013-07-29 04:03:00,
2013-07-28 23:06:00,-999.9,-99.9,22.85,North,32767,-999.0,4.0,255,-99.99,,,0.00,,Wunderground v.1.15,2013-07-29 04:06:00,
2013-07-28 23:08:00,-999.9,-99.9,24.03,North,32767,-999.0,4.0,255,-99.99,,,0.00,,Wunderground v.1.15,2013-07-29 04:08:00,
2013-07-28 23:11:00,-999.9,-99.9,24.03,North,32767,-999.0,0.0,255,-99.99,,,0.00,,Wunderground v.1.15,2013-07-29 04:11:00,
2013-07-28 23:18:00,-999.9,-99.9,24.03,North,32767,-999.0,0.0,255,-99.99,,,0.00,,Wunderground v.1.15,2013-07-29 04:18:00,
2013-07-28 23:23:00,-999.9,-99.9,24.03,North,32767,-999.0,0.0,255,-99.99,,,0.00,,Wunderground v.1.15,2013-07-29 04:23:00,
2013-07-28 23:29:00,-999.9,-99.9,26.37,North,32767,-999.0,0.0,255,-99.99,,,0.00,,Wunderground v.1.15,2013-07-29 04:29:00,
2013-07-28 23:36:00,-999.9,-99.9,22.94,North,32767,-999.0,0.0,255,-99.99,,,0.00,,Wunderground v.1.15,2013-07-29 04:36:00,
2013-07-28 23:43:00,-999.9,-99.9,22.94,North,32767,-999.0,0.0,255,-99.99,,,0.00,,Wunderground v.1.15,2013-07-29 04:43:00,
2013-07-28 23:49:00,-999.9,-99.9,28.90,North,32767,-999.0,0.0,255,-99.99,,,0.00,,Wunderground v.1.15,2013-07-29 04:49:00,
2013-07-28 23:56:00,-999.9,-99.9,27.76,North,32767,-999.0,0.0,255,-99.99,,,0.00,,Wunderground v.1.15,2013-07-29 04:56:00,